Location: Newark
(7.0858°N, 171.3717°E)
Time: 13:13:46
(UTC+00:00)

Vanguard 1 Rocket - Pass Details

Date: 04 December 2020
Orbit: 655 x 4222 km, 34.3° (Epoch: 23 January)

Event Time Altitude Azimuth Distance (km) Brightness Sun altitude
Exits shadow 15:56:04 27° 342° (NNW) 5,469 10.9 -37.0°
Maximum altitude 16:00:51 29° 0° (N) 5,042 10.9 -35.9°
Drops below altitude 10° 16:14:41 10° 56° (NE) 5,159 11.6 -32.8°
Sets 16:18:47 0° 68° (ENE) 5,676 12.1 -31.8°
